Weather History for Twin Falls, ID

Change the Weather History Date:

Thursday, May 1, 2014

  Actual Average Record
Temperature  
Mean Temperature 60 °F -  
Max Temperature 77 °F 65 °F 83 °F (2007)
Min Temperature 43 °F 39 °F 28 °F (2013)
Degree Days  
Heating Degree Days 5 13  
Month to date heating degree days 5 13  
Since 1 July heating degree days 5329 5811  
Cooling Degree Days 0 0  
Month to date cooling degree days 0 0  
Year to date cooling degree days 0 1  
Growing Degree Days 10 (Base 50)    
Moisture  
Dew Point 27 °F    
Average Humidity 30    
Maximum Humidity 49    
Minimum Humidity 11    
Precipitation  
Precipitation 0.00 in 0.06 in 0.57 in (1983)
Month to date precipitation 0.00 0.06  
Year to date precipitation 4.95 4.03  
Sea Level Pressure  
Sea Level Pressure 30.15 in    
Wind  
Wind Speed 10 mph (SW)    
Max Wind Speed 18 mph    
Max Gust Speed 22 mph    
Visibility 10 miles    
Events      
T = Trace of Precipitation, MM = Missing Value Source: NWS Daily Summary

Daily Weather History Graph

Daily Weather History Graph

Search for Another Location

Airport:

Trip Planner

Search our weather history database for the weather conditions in past years. The results will help you decide how hot, cold, wet, or windy it might be!

Date:

Astronomy

May. 01, 2014 Rise Set
Actual Time 6:32 AM MDT 8:37 PM MDT
Civil Twilight 6:02 AM MDT 9:08 PM MDT
Nautical Twilight 5:24 AM MDT 9:46 PM MDT
Astronomical Twilight 4:43 AM MDT 10:28 PM MDT
Moon 8:22 AM MDT (5/1) 11:16 PM MDT (5/1)
Length of Visible Light 15h 06m
Length of Day
14h 05m
Waxing Crescent, 7% of the Moon is Illuminated
May 1
Waxing Crescent
May 6
First Quarter
May 14
Full
May 21
Last Quarter
May 28
New

Hourly Weather History & Observations

Time (MDT) Temp. Windchill Dew Point Humidity Pressure Visibility Wind Dir Wind Speed Gust Speed Precip Events Conditions
12:53 AM 46.9 °F - 26.1 °F 44% 30.26 in 10.0 mi South 15.0 mph - N/A   Clear
1:53 AM 48.9 °F - 24.1 °F 38% 30.25 in 10.0 mi South 12.7 mph - N/A   Clear
2:53 AM 46.9 °F - 25.0 °F 42% 30.23 in 10.0 mi South 12.7 mph - N/A   Clear
3:53 AM 46.0 °F 40.6 °F 25.0 °F 44% 30.22 in 10.0 mi South 11.5 mph - N/A   Clear
4:53 AM 44.1 °F 38.1 °F 25.0 °F 47% 30.23 in 10.0 mi SSW 11.5 mph - N/A   Clear
6:53 AM 43.0 °F 36.4 °F 25.0 °F 49% 30.23 in 10.0 mi South 12.7 mph - N/A   Clear
7:53 AM 48.9 °F - 27.0 °F 43% 30.22 in 10.0 mi SSW 13.8 mph - N/A   Clear
8:53 AM 57.0 °F - 26.1 °F 30% 30.23 in 10.0 mi SSW 10.4 mph - N/A   Clear
9:53 AM 61.0 °F - 27.0 °F 27% 30.23 in 10.0 mi West 3.5 mph - N/A   Clear
10:53 AM 64.9 °F - 32.0 °F 29% 30.20 in 10.0 mi NNW 4.6 mph - N/A   Clear
11:53 AM 66.0 °F - 32.0 °F 28% 30.19 in 10.0 mi Calm Calm - N/A   Clear
12:53 PM 71.1 °F - 32.0 °F 24% 30.17 in 10.0 mi Variable 4.6 mph - N/A   Clear
1:53 PM 73.0 °F - 24.1 °F 16% 30.13 in 10.0 mi WNW 9.2 mph - N/A   Clear
2:53 PM 75.0 °F - 23.0 °F 14% 30.12 in 10.0 mi West 9.2 mph - N/A   Clear
3:53 PM 75.0 °F - 23.0 °F 14% 30.09 in 10.0 mi West 8.1 mph - N/A   Clear
4:53 PM 75.9 °F - 23.0 °F 14% 30.07 in 10.0 mi West 11.5 mph 19.6 mph N/A   Clear
5:53 PM 77.0 °F - 19.9 °F 12% 30.04 in 10.0 mi West 13.8 mph - N/A   Clear
7:53 PM 66.9 °F - 33.1 °F 28% 30.03 in 10.0 mi WSW 8.1 mph - N/A   Clear
8:53 PM 59.0 °F - 30.0 °F 33% 30.03 in 10.0 mi SSW 8.1 mph - N/A   Clear
9:53 PM 57.9 °F - 30.0 °F 35% 30.02 in 10.0 mi SSW 11.5 mph - N/A   Clear
10:53 PM 60.1 °F - 28.9 °F 31% 30.01 in 10.0 mi South 15.0 mph - N/A   Clear
11:53 PM 59.0 °F - 28.9 °F 32% 29.99 in 10.0 mi South 17.3 mph - N/A   Clear